This is the latest recevied weather packets stored in our database for station/object W1CAT. If no packets are shown the sender has not sent any weather packets the latest 1 day(s).
| Time | Temp. | Humidity | Pressure | Rain* | Wind** | Luminosity | Snow |
|---|---|---|---|---|---|---|---|
| 1836274790 | 15° C | 48% | - | 0 mm | 0 m/s | - | - |
| 1836274488 | 16.11° C | 42% | - | 0 mm | 0 m/s | - | - |
| 1836274342 | 14.44° C | 50% | - | 0 mm | 0 m/s | - | - |
| 1836274187 | 16.11° C | 41% | - | 0 mm | 0.45 m/s, 72° | - | - |
| 1836273886 | 16.67° C | 41% | - | 0 mm | 1.79 m/s, 9° | - | - |
| 1778051335 | 1.11° C | 84% | - | 0 mm | 0.45 m/s, 99° | - | - |
| 1778051032 | 1.11° C | 84% | - | 0 mm | 1.34 m/s, 135° | - | - |
| 1778050729 | 1.11° C | 84% | - | 0 mm | 0.89 m/s, 105° | - | - |
| 1778050427 | 1.11° C | 85% | - | 0 mm | 0.89 m/s, 143° | - | - |
| 1778050123 | 1.11° C | 85% | - | 0 mm | 0 m/s | - | - |
| 1778049818 | 1.11° C | 85% | - | 0 mm | 0.45 m/s, 135° | - | - |
| 1778049516 | 1.11° C | 84% | - | 0 mm | 0.45 m/s, 140° | - | - |
| 1778049214 | 1.11° C | 84% | - | 0 mm | 0.89 m/s, 148° | - | - |
| 1778048912 | 1.11° C | 84% | - | 0 mm | 1.34 m/s, 146° | - | - |
| 1778048609 | 1.11° C | 85% | - | 0 mm | 0.89 m/s, 113° | - | - |
| 1778048305 | 1.11° C | 86% | - | 0 mm | 1.34 m/s, 85° | - | - |
| 1778048002 | 1.11° C | 86% | - | 0 mm | 0.89 m/s, 159° | - | - |
| 1778047700 | 1.67° C | 87% | - | 0 mm | 0.89 m/s, 104° | - | - |
| 1778047398 | 1.67° C | 87% | - | 0 mm | 0.45 m/s, 96° | - | - |
| 1778047094 | 1.67° C | 87% | - | 0 mm | 0.45 m/s, 128° | - | - |
| 1778046791 | 1.67° C | 88% | - | 0 mm | 0.45 m/s, 117° | - | - |
| 1778046488 | 1.67° C | 87% | - | 0 mm | 0.45 m/s, 135° | - | - |
| 1778046185 | 1.67° C | 87% | - | 0 mm | 0.45 m/s, 109° | - | - |
| 1778045881 | 1.67° C | 88% | - | 0 mm | 0.45 m/s, 123° | - | - |
| 1778045581 | 1.67° C | 89% | - | 0 mm | 0.45 m/s, 142° | - | - |
* Rain latest hour (hover to see other rain measurements)
** Current wind speed in m/s (hover to see current wind gust speed)